Terminal Aerodrome Forecast
Issued by NWS

Home | Current Version | Previous Version | Text Only | Print | Product List | Glossary On
Versions: 1 2 3 4 5 6 7 8 9 10 11 12 13 14 15 16 17 18 19 20
442
FTUS46 KSEW 140213 AAA
TAFHQM
TAF AMD
KHQM 140213Z 1402/1424 19020KT 5SM -RA BR SCT015 OVC030
      TEMPO 1402/1404 19020G30KT 2SM -RA BR BKN015 OVC030
     FM140400 21011G18KT 5SM -RA BR SCT010 OVC018=

USA.gov is the U.S. government's official web portal to all federal, state and local government web resources and services.